OBJECT A, 60088

Orbit data source: Space-Track

You're viewing an Uncataloged Satellite

Recently launched and/or uncataloged satellites may have evolving metadata. Metadata may include but not limited to: Owner, Maufacturer, Bus, Motor, and Mission.

OBJECT A, 60088 is a Chinese satellite in LEO that was launched on Sat, 22 Jun 2024 UTC via a CHANG ZHENG 2C launch vehicle from the Xichang Space Center, China (XSC). Unknown objects in Earth's orbit typically refer to objects detected orbiting the Earth but have not yet been identified or cataloged. These objects could be anything from previously untracked satellites, spent rocket stages, debris from satellite collisions, or even natural meteoroids temporarily captured by Earth's gravity.

Loading next visibility...
OBJECT A details
Identifier
60088, 2024-116A
Orbit
LEO
Last TLE update18 hours ago
Origin
Flag of CNCASC/CNES (CN / PRC)
ManufacturerIMI/CAS
MissionOperational Civil Astronomy
Bus & MotorSVOM, Unknown motor
Mass930 kg wet, 930 kg dry
Launch date (UTC)
2024-06-22 (7 months ago)
Launch vehicle
CHANG ZHENG 2C
Launch site
Xichang Space Center, China (XSC)
Object typeUnknown
Shape & HBRBox + 2 Pan, 10 m
Radar Cross Section5.372 m², Medium (>0.1 m² and < 1m²)

Expand to show TLE details & history

TLE from 18 hours ago
0 OBJECT A
1 60088U 24116A   25014.72323435  .00003065  00000-0  36336-3 0  9995
2 60088  28.9941 148.3256 0004248 166.4952 193.5755 14.81947280 30593
Epoch: 2025-01-14T17:21Z
Definitive object data (Epoch: 2025-01-14T17:21:27.447Z)
Latitude-0.00003°
Longitude133.53535°
Altitude624.413 km
Speed7.547 km/s
True Right ascension09h 53m 18s
True Declination0° 00' 00"
Sunlit
Object was in full shadow at TLE epoch
Visualization TLE readout
Latitude26.59049°
Longitude-115.2078°
Altitude620.377 km
Speed7.554 km/s
Apparent Right ascension20h 12m 22s
Apparent Declination-7° 55' 14"
Sunlit
Object is in daylight
Visualization observer readout
Local Sidereal Time12:18:59
Azimuth77.325° E
Elevation-26.686°
Doppler factor1
Orbital elements
Apogee altitude630.24 km
Perigee altitude624.288 km
Semi-major axis7,005.401 km
Eccentricity0.0004248
Inclination28.9941°
RAAN148.3256°
Arg. of periapsis166.4952°
True anomaly193.56408°
Mean anomaly193.5755°
Eccentric anomaly193.56979°
Mean motion3.70164 °/min
BSTAR0.00036336
Orbital period97.25 mins
Loading maneuver chart data...
Loading historical data...
Loading historical data...
Loading historical data...
Loading historical data...
Loading historical data...
Loading historical data...
Loading historical data...
Other satellites on launch #116 in the year 2024 (2024-06-22 UTC)

OBJECT A Visibility forecast

Observer location: undefined°, undefined

Span
Click to sort rows by Start time (UTC) header in descending order
Start Az.
Max El. time (UTC)
Max El. Az.
Max El.
End time (UTC)
End Az.
4 mins2025-01-15 13:01:45.414Z195.876° SSW2025-01-15 13:03:45.414Z168.254° S14.65°2025-01-15 13:05:45.414Z139.737° SSE
4 mins2025-01-15 14:44:45.414Z206.03° SW2025-01-15 14:46:45.414Z171.031° S19.098°2025-01-15 14:48:45.414Z140.877° SSE
|